Regional Weather Roundup
Issued by NWS Nashville, TN

Home | Current Version | Previous Version | Text Only | Print | Product List | Glossary On
Versions: 1 2 3 4 5 6 7 8 9 10 11 12 13 14 15 16 17 18 19 20 21 22 23 24 25 26 27 28 29 30 31 32 33 34 35 36 37 38 39 40 41 42 43 44 45 46 47 48 49 50
000
ASUS44 KOHX 281810
RWROHX
MIDDLE TENNESSEE HOURLY WEATHER ROUNDUP
NATIONAL WEATHER SERVICE NASHVILLE TN
100 PM CDT TUE JUL 28 2015

NOTE: "FAIR" INDICATES FEW OR NO CLOUDS BELOW 12,000 FEET WITH
NO SIGNIFICANT WEATHER AND/OR OBSTRUCTIONS TO VISIBILITY.

* THESE REPORTS ARE NOT UNDER NWS QUALITY CONTROL AND MAY NOT
  REPORT WEATHER SUCH AS PRECIPITATION AND FOG.


TNZ005>011-023>034-057-059-062>066-078-080-281900
...NORTHERN MIDDLE TENNESSEE...

CITY           SKY/WX    TMP DP  RH WIND       PRES   REMARKS
CLARKSVILLE    MOSUNNY   92  75  57 SW8       30.00S HX 103
CROSSVILLE     MOSUNNY   88  70  55 W8        30.08F HX  93
GALLATIN       PTSUNNY   93  32  11 W3        30.00F
DICKSON        SUNNY     90  73  58 W7        30.03S HX  98
NASHVILLE      MOSUNNY   93  72  50 W8        30.00F HX 101
PORTLAND       MOSUNNY  N/A N/A N/A NW7       30.01S
ROCKWOOD       PTSUNNY   80  73  79 SE8       30.07S
SMYRNA         MOSUNNY   90  75  61 VRB5      30.00F HX 100
SPARTA         SUNNY     95  79  59 VRB3      30.01F HX 112
$$
TNZ056-058-060-061-075>077-079-093>097-281900
...SOUTHERN MIDDLE TENNESSEE...

CITY           SKY/WX    TMP DP  RH WIND       PRES   REMARKS
COLUMBIA       SUNNY     97  75  49 VRB6      30.01S HX 109
MCMINNVILLE    SUNNY     86  77  74 SW6       30.04F HX  97
SHELBYVILLE    MOSUNNY   95  77  55 NW9       30.02F HX 109
TULLAHOMA      MOSUNNY   91  73  55 W5        30.05S HX 100
WINCHESTER     PTSUNNY   86  75  70 N5        30.04S HX  95
$$


...KEY TO REMARKS...
VSB - VISIBILITY IN MILES
WCI - WIND CHILL INDEX
HX  - HEAT INDEX



USA.gov is the U.S. government's official web portal to all federal, state and local government web resources and services.